Location: Dötzum
(52.0808°N, 9.8063°E)
Time: 05:43:48
(UTC+00:00)

Cosmos 1703 - Pass Details

Date: 27 May 2022
Orbit: 518 x 535 km, 82.5° (Epoch: 26 June)

Event Time Altitude Azimuth Distance (km) Brightness Sun altitude
Exits shadow 01:24:43 - 165° (SSE) 1,894 5.6 -11.6°
Reaches altitude 10° 01:24:59 10° 164° (SSE) 1,789 5.5 -11.6°
Maximum altitude 01:28:42 42° 94° (E) 780 4.3 -11.3°
Drops below altitude 10° 01:32:25 10° 23° (NNE) 1,797 7.5 -11.0°
Sets 01:34:39 0° 17° (NNE) 2,690 8.5 -10.8°
